Burnet, TX

1:00 PM CST on December 13, 2017 (GMT -0600)
Burnet Municipal-Craddock

Weather History for KBMQ - March, 2011

Change the Weather History Date:

Monday, March 14, 2011

  Actual Average Record
Temperature  
Mean Temperature 57 °F -  
Max Temperature 69 °F 65 °F 91 °F (2008)
Min Temperature 48 °F 46 °F 36 °F (1999)
Degree Days  
Heating Degree Days 8    
Growing Degree Days 7 (Base 50)    
Moisture  
Dew Point 47 °F    
Average Humidity 71    
Maximum Humidity 94    
Minimum Humidity 33    
Precipitation  
Precipitation 0.00 in - - ()
Sea Level Pressure  
Sea Level Pressure 30.15 in    
Wind  
Wind Speed 8 mph (North)    
Max Wind Speed 16 mph    
Max Gust Speed 23 mph    
Visibility 10 miles    
Events Rain    
Averages and records for this station are not official NWS values.
T = Trace of Precipitation, MM = Missing Value Source: NWS Daily Summary

Daily Weather History Graph

Daily Weather History Graph

Search for Another Location

Airport or City:

Trip Planner

Search our weather history database for the weather conditions in past years. The results will help you decide how hot, cold, wet, or windy it might be!

Date:

Astronomy

Mar. 14, 2011 Rise Set
Actual Time 7:44 AM CDT 7:40 PM CDT
Civil Twilight 7:20 AM CDT 8:04 PM CDT
Nautical Twilight 6:52 AM CDT 8:32 PM CDT
Astronomical Twilight 6:24 AM CDT 9:00 PM CDT
Moon 2:21 PM CDT (3/14) 3:45 AM CDT (3/14)
Length of Visible Light 12h 44m
Length of Day
11h 55m
Waxing Gibbous, 68% of the Moon is Illuminated
Mar 14
Waxing Gibbous
Mar 19
Full
Mar 26
Last Quarter
Apr 3
New
Apr 11
First Quarter

Hourly Weather History & Observations

Time (CDT) Temp. Dew Point Humidity Pressure Visibility Wind Dir Wind Speed Gust Speed Precip Events Conditions
12:53 AM 64.0 °F 59.0 °F 84% 30.05 in 10.0 mi SSE 8.1 mph - N/A   Overcast
1:53 AM 64.0 °F 59.0 °F 84% 30.06 in 10.0 mi South 6.9 mph - N/A   Overcast
2:32 AM 64.4 °F 59.0 °F 83% 30.09 in 10.0 mi South 6.9 mph - N/A   Overcast
3:31 AM 64.4 °F 59.0 °F 83% 30.09 in 10.0 mi SSW 4.6 mph - N/A   Overcast
3:53 AM 64.0 °F 59.0 °F 84% 30.05 in 10.0 mi SSW 4.6 mph - N/A   Overcast
4:53 AM 64.0 °F 59.0 °F 84% 30.07 in 9.0 mi Calm Calm - N/A   Overcast
5:46 AM 62.6 °F 60.8 °F 94% 30.12 in 8.0 mi North 5.8 mph - 0.00 in   Overcast
5:53 AM 62.1 °F 59.0 °F 90% 30.09 in 8.0 mi North 13.8 mph 20.7 mph 0.00 in   Overcast
6:04 AM 57.2 °F 53.6 °F 88% 30.14 in 8.0 mi North 12.7 mph - 0.00 in Rain Light Rain
6:33 AM 55.4 °F 50.0 °F 82% 30.14 in 10.0 mi North 10.4 mph 19.6 mph 0.00 in   Overcast
6:53 AM 55.9 °F 48.9 °F 77% 30.12 in 10.0 mi North 11.5 mph - 0.00 in   Overcast
7:27 AM 53.6 °F 44.6 °F 72% 30.16 in 10.0 mi North 16.1 mph 23.0 mph N/A   Overcast
8:53 AM 51.1 °F 43.0 °F 74% 30.18 in 10.0 mi North 13.8 mph 20.7 mph N/A   Overcast
9:53 AM 50.0 °F 41.0 °F 71% 30.22 in 10.0 mi NNW 13.8 mph 23.0 mph N/A   Overcast
10:24 AM 48.2 °F 39.2 °F 71% 30.26 in 10.0 mi North 12.7 mph 21.9 mph N/A   Overcast
10:53 AM 50.0 °F 39.9 °F 68% 30.25 in 10.0 mi North 9.2 mph - N/A   Overcast
11:53 AM 50.0 °F 37.0 °F 61% 30.27 in 10.0 mi North 11.5 mph 20.7 mph N/A   Mostly Cloudy
12:53 PM 57.9 °F 37.9 °F 47% 30.24 in 10.0 mi North 9.2 mph 17.3 mph N/A   Partly Cloudy
2:53 PM 66.0 °F 36.0 °F 33% 30.18 in 10.0 mi NNW 10.4 mph 19.6 mph N/A   Clear
8:53 PM 55.0 °F 33.1 °F 43% 30.17 in 10.0 mi North 3.5 mph - N/A   Clear
9:53 PM 53.1 °F 34.0 °F 48% 30.19 in 10.0 mi NNE 4.6 mph - N/A   Clear
10:53 PM 51.1 °F 34.0 °F 52% 30.20 in 10.0 mi NE 3.5 mph - N/A   Clear
11:53 PM 50.0 °F 36.0 °F 59% 30.21 in 10.0 mi NE 3.5 mph - N/A   Clear